Simultaneous Nadir Overpasses (SNOs) Predictions

Prediction of SNOs between NOAA-19 and TERRA Satellite Orbit:

Table of predicted SNOs for the next 14.0 days since TLE Epoch: 2/29/2020
Index Date (NOAA-19) Time (NOAA-19) Lat,Lon (NOAA-19) SZA (NOAA-19 ) Date (TERRA) Time (TERRA) Lat,Lon (TERRA) SZA (TERRA ) Distance(km) Time Diff (sec)
1 03/01/2020 18:56:57 79.23, -77.81 87.24 03/01/2020 18:57:54 79.26, -77.79 87.28 3.06 57
2 03/01/2020 19:48:01 -79.20, 89.68 92.79 03/01/2020 19:47:22 -79.23, 89.64 92.78 2.66 39
3 03/04/2020 00:30:25 -79.33, 18.03 93.58 03/04/2020 00:31:38 -79.23, 18.59 93.61 16.27 73
4 03/04/2020 01:21:17 79.23,-173.75 86.39 03/04/2020 01:21:04 79.22,-173.82 86.37 1.65 13
5 03/06/2020 06:54:42 -79.23, -77.05 94.46 03/06/2020 06:54:46 -79.23, -77.17 94.47 2.49 4
6 03/08/2020 12:27:57 79.24, 19.68 84.69 03/08/2020 12:28:25 79.26, 19.62 84.72 3.38 28
7 03/08/2020 13:19:02 -79.22,-172.96 95.33 03/08/2020 13:17:53 -79.24,-172.91 95.33 2.27 69
8 03/10/2020 18:01:23 -79.27, 116.16 96.16 03/10/2020 18:02:06 -79.25, 116.10 96.17 2.21 43
9 03/10/2020 18:52:17 79.23, -76.27 83.83 03/10/2020 18:51:32 79.23, -76.37 83.80 2.07 45
10 03/12/2020 23:34:38 79.28,-147.17 82.99 03/12/2020 23:35:43 79.28,-147.11 83.02 1.40 65




NCC Satellite Simultaneous Nadir Overpasses (SNOs) Prediction Service
